Theta_e
312 312 312 313 313 313 312 311 312 317 319 320 322 324 326 327 328 330 331 331 327 326 323 321 320 318 317 317 312 302 297 296
310 311 312 312 311 311 311 311 311 315 317 319 322 324 325 327 327 328 329 330 327 326 323 321 319 317 317 311 303 297 296 296
310 310 310 311 311 311 310 310 311 314 316 318 318 317 316 314 314 324 326 328 328 325 322 320 317 316 312 304 297 296 296 296
310 310 310 310 310 309 309 310 311 311 311 311 311 311 311 311 311 311 318 324 326 323 320 319 316 314 305 298 296 296 295 295
311 311 311 310 310 310 309 309 310 310 311 311 310 310 310 310 310 311 314 324 325 320 319 317 316 308 300 296 296 295 295 294
310 310 311 311 310 310 310 310 310 310 310 310 310 311 311 311 310 316 321 321 321 320 319 316 312 303 297 295 295 295 294 293
310 310 310 310 311 310 310 310 310 310 310 310 312 312 313 312 316 320 321 320 318 318 316 314 306 298 295 295 295 294 293 292
309 309 309 309 310 310 311 310 310 309 310 311 312 312 314 317 318 321 320 320 318 317 314 310 301 296 295 295 294 293 292 291
308 308 308 309 309 309 310 310 310 310 310 310 312 313 316 317 319 319 318 318 317 316 309 302 297 295 295 294 293 292 291 291
308 308 308 309 309 308 309 309 310 310 310 310 311 312 315 316 318 318 317 316 315 311 304 299 295 295 294 293 292 291 291 290
308 308 309 309 309 308 308 308 309 309 310 309 310 312 313 315 316 317 316 314 311 302 297 296 295 294 293 292 291 290 290 290
309 309 309 308 308 308 308 308 308 308 308 308 309 311 311 313 314 314 313 310 302 297 295 294 294 293 292 291 290 290 290 297
308 308 309 308 307 307 307 307 307 307 307 307 307 308 311 312 312 312 310 305 299 296 294 294 293 292 290 290 290 290 299 297
304 306 307 308 307 307 306 306 306 306 306 306 306 306 308 310 310 308 304 299 297 295 294 293 293 291 289 290 290 298 297 296
302 303 305 307 307 307 307 306 306 305 305 304 304 304 304 305 306 305 302 298 295 294 293 293 292 290 289 290 297 297 297 296
301 301 302 304 305 306 306 306 305 305 304 304 303 302 302 302 302 302 300 298 297 295 294 294 292 291 291 297 298 298 296 296
300 300 301 301 302 304 305 305 304 303 303 302 302 301 301 300 300 298 297 296 295 294 293 293 292 289 295 298 297 296 297 291
297 298 298 299 300 301 302 304 304 303 301 301 300 299 300 299 299 298 297 295 294 293 292 291 289 291 298 296 295 295 293 286
296 296 296 297 297 298 300 301 302 302 301 299 298 298 297 297 297 297 296 295 295 293 292 290 288 296 296 295 295 296 288 286
295 295 295 295 296 296 297 299 300 300 300 299 297 296 295 295 294 294 294 294 293 292 292 292 289 294 294 295 295 296 291 287
Wind_Speed
22 25 27 32 35 37 38 39 40 41 42 40 40 39 39 38 38 37 36 35 33 29 25 23 24 24 23 23 20 18 16 14
20 21 23 27 29 30 38 42 42 41 40 38 37 36 36 37 37 36 34 37 38 33 28 26 25 26 24 23 21 19 16 14
17 19 23 25 26 29 34 40 40 39 37 36 36 38 38 39 38 36 35 39 38 36 29 24 26 24 25 23 21 19 17 14
9 12 16 20 22 23 28 32 34 34 35 36 36 37 38 39 39 35 35 40 39 37 29 26 27 26 26 24 22 19 17 14
10 9 9 12 16 19 23 27 29 31 33 33 34 34 36 36 36 34 36 39 41 35 26 28 27 29 28 26 23 20 17 16
16 14 12 12 15 19 22 25 27 28 29 29 29 30 31 31 32 33 38 37 42 33 28 30 32 31 28 26 23 20 19 17
18 18 18 18 18 18 21 23 25 26 26 25 25 25 26 27 30 33 36 41 36 33 29 34 32 30 28 25 23 22 20 18
19 18 18 17 18 19 20 22 24 24 24 24 24 25 26 27 30 35 38 39 39 32 34 34 33 30 28 26 24 21 19 19
19 17 15 15 15 17 22 24 24 24 25 26 26 27 28 29 32 38 40 37 37 37 37 35 33 31 29 27 25 23 21 20
27 24 20 17 17 17 19 23 26 27 28 28 28 29 30 33 35 36 39 40 39 38 39 38 35 32 30 28 26 23 22 20
16 14 15 17 19 20 20 22 25 28 28 28 29 30 33 35 36 38 39 40 40 39 38 35 33 32 30 29 26 24 22 18
15 16 16 16 15 16 18 20 19 23 28 30 32 33 31 35 38 39 41 41 40 39 37 36 34 32 32 29 25 22 21 17
11 13 13 12 13 14 16 13 15 19 24 29 32 33 35 38 39 40 41 40 41 41 40 39 36 33 30 27 24 22 18 16
7 9 10 10 10 10 9 13 14 16 19 23 28 33 35 37 40 42 43 44 45 44 43 41 37 34 31 27 25 20 18 19
4 6 9 9 9 8 8 10 12 13 15 17 23 29 33 36 38 41 45 47 47 45 43 41 39 36 32 29 24 21 20 18
7 8 9 9 9 8 8 9 10 11 13 15 18 23 29 36 39 43 45 46 47 46 45 42 39 35 30 27 21 20 18 21
8 9 9 10 10 10 10 9 9 10 12 14 17 19 25 31 38 42 45 45 45 44 41 38 35 32 28 23 20 21 28 30
9 11 12 12 13 13 13 13 12 11 12 14 16 19 23 28 33 40 44 45 46 44 40 38 33 33 28 21 23 39 29 34
11 12 13 14 14 15 14 14 13 13 14 15 16 18 22 26 30 35 43 46 47 45 40 37 37 33 27 28 36 32 35 37
8 10 12 14 15 17 18 17 16 15 15 16 18 19 21 23 27 33 38 43 46 42 43 43 42 38 38 40 44 35 36 37
Wind_Direction
250 251 251 251 250 247 245 241 237 234 235 238 240 241 242 241 241 240 238 235 232 236 236 241 245 242 240 236 222 219 219 222
252 248 249 250 247 246 240 235 232 232 234 235 237 239 241 242 243 243 239 233 228 231 228 232 239 238 232 218 216 217 219 227
268 253 247 243 242 245 240 233 229 231 233 235 236 239 241 242 242 237 233 231 234 222 221 234 231 229 218 216 216 217 221 229
288 271 260 253 245 234 230 228 229 232 235 237 239 241 244 244 242 237 226 227 228 216 219 237 228 216 212 214 215 218 223 231
330 313 283 261 251 239 233 232 233 236 240 244 247 248 246 242 237 228 225 220 220 211 225 233 220 213 212 213 215 219 224 229
296 294 275 260 245 237 233 236 240 243 246 247 245 242 237 232 231 220 217 223 212 216 231 221 212 212 212 213 217 221 224 225
282 276 266 264 253 247 244 243 245 248 248 247 245 241 231 230 220 221 212 227 208 217 227 213 210 211 212 215 220 222 222 220
281 276 280 280 273 261 255 252 250 248 245 243 240 233 224 221 216 223 214 218 212 225 218 212 211 213 213 215 219 221 222 217
288 286 279 279 271 266 254 249 249 249 248 242 236 229 221 224 222 221 212 212 220 220 211 212 212 212 214 216 218 219 217 216
283 280 274 272 274 271 263 252 247 246 245 242 238 230 221 221 221 218 218 220 218 215 212 212 212 212 214 216 218 218 216 214
286 286 279 272 266 262 260 258 252 250 249 246 242 236 226 224 223 221 221 222 218 213 213 215 215 216 217 217 217 217 214 211
293 294 286 277 274 272 267 267 266 255 250 245 242 239 233 228 227 225 222 219 214 213 215 215 216 217 216 217 219 216 208 226
301 302 297 286 274 271 271 274 263 258 255 249 244 240 235 230 230 228 224 218 216 216 216 216 216 216 215 214 216 207 222 233
324 315 311 306 293 280 267 257 259 258 257 252 246 243 239 234 230 225 221 219 218 218 217 217 217 215 214 213 204 217 227 239
0 338 334 331 325 309 279 260 259 262 262 258 249 244 241 237 234 230 226 223 222 222 221 221 219 217 212 204 212 222 240 256
13 7 357 345 334 321 304 289 276 267 265 261 256 250 245 241 238 234 233 234 233 230 229 226 223 222 214 213 230 246 261 260
18 10 358 347 338 330 321 306 293 284 274 266 260 254 249 243 240 237 236 236 237 237 238 234 230 220 211 225 248 269 271 241
5 360 352 345 338 330 323 316 310 301 283 273 266 261 257 250 244 239 238 236 235 234 232 229 226 212 225 245 266 269 243 244
354 348 342 339 337 332 329 321 315 303 289 279 275 270 264 259 254 248 241 237 235 230 227 226 217 220 232 249 261 245 243 245
342 339 335 331 330 329 329 325 319 308 299 292 282 276 272 268 263 256 251 244 238 231 224 225 220 228 242 243 258 243 249 252